Location: Unspecified
(34.1750°S, 150.8048°E)
Time: 03:47:30
(UTC+10:00)

N. Korean satellite - Visible Passes

Search period start: 28 May 2018 00:00
Search period end: 07 June 2018 00:00
Orbit: 458 x 513 km, 97.2° (Epoch: 26 May)

Date Brightness Start Highest point End Pass type
(mag) Time Alt. Az. Time Alt. Az. Time Alt. Az.
28 May 7.9 05:24:56 10° NE 05:28:30 42° ESE 05:32:07 10° S visible
28 May 6.5 18:30:45 27° S 18:32:37 84° W 18:36:09 10° NNW visible
29 May 9.2 05:01:45 10° ENE 05:04:38 21° ESE 05:07:32 10° SSE visible
29 May 6.9 18:06:33 21° SE 18:08:34 41° E 18:11:54 10° N visible
30 May 9.9 04:39:57 10° E 04:40:50 11° ESE 04:41:42 10° SE visible
30 May 7.1 06:10:16 10° N 06:13:51 42° W 06:17:30 10° SSW visible
30 May 8.0 17:42:21 13° SE 17:44:26 19° E 17:47:01 10° NE visible
30 May 9.1 19:16:44 17° SW 19:17:47 19° WSW 19:20:20 10° WNW visible
31 May 6.7 05:46:03 10° NNE 05:49:50 86° ESE 05:53:39 10° S visible
31 May 7.8 18:52:31 27° SSW 18:53:54 39° WSW 18:57:11 10° NW visible
01 Jun 8.1 05:22:20 10° NE 05:25:52 39° ESE 05:29:26 10° S visible
01 Jun 6.4 18:28:17 31° SSE 18:29:55 89° ENE 18:33:25 10° NNW visible
02 Jun 9.3 04:59:13 10° ENE 05:01:59 20° ESE 05:04:46 10° SSE visible
02 Jun 7.0 18:04:03 22° SE 18:05:51 37° E 18:09:07 10° NNE visible
03 Jun 7.0 06:07:33 10° N 06:11:11 45° W 06:14:50 10° SSW visible
03 Jun 8.1 17:39:48 12° ESE 17:41:43 18° E 17:44:07 10° NE visible
03 Jun 9.0 19:14:11 18° SW 19:15:04 20° WSW 19:17:42 10° WNW visible
04 Jun 6.8 05:43:22 10° NNE 05:47:08 80° ESE 05:50:57 10° S visible
04 Jun 7.7 18:49:56 30° SSW 18:51:10 42° WSW 18:54:29 10° NNW visible
05 Jun 8.2 05:19:42 10° NE 05:23:11 36° ESE 05:26:41 10° S visible
05 Jun 6.3 18:25:41 33° SSE 18:27:11 82° E 18:30:39 10° N visible
06 Jun 9.4 04:56:40 10° ENE 04:59:18 18° ESE 05:01:55 10° SSE visible
06 Jun 7.2 18:01:25 22° SE 18:03:05 34° E 18:06:17 10° NNE visible
06 Jun 9.8 19:35:47 10° WSW 19:36:10 11° WSW 19:36:54 10° W visible
